Temp
22 22 22 22 22 22 22 21 21 21 21 21 20 19 19 19 19 19 19 18 18 18 18 18 18 18 18 17 17 17 18 18 19 19 19 19 20 20 19 19 19 19
21 22 22 22 22 22 22 21 21 21 21 21 20 19 19 19 19 19 19 19 19 18 18 18 18 18 18 18 18 18 18 18 18 18 19 19 19 19 19 19 19 19
21 22 22 22 22 22 22 21 21 21 21 20 20 19 19 19 19 19 19 19 19 18 18 18 18 18 18 18 18 18 18 18 18 18 19 19 19 19 19 19 19 19
21 22 22 22 22 22 21 21 21 21 21 20 20 20 20 19 19 19 19 19 19 18 18 18 18 18 18 19 19 19 18 18 18 18 18 19 19 19 19 18 18 18
22 22 23 23 22 21 21 21 21 21 20 20 20 20 19 19 19 19 19 19 19 19 19 19 18 18 18 18 19 19 19 18 18 18 18 19 19 19 19 18 18 18
22 22 22 22 22 21 21 21 21 20 20 20 20 19 19 20 20 20 19 19 20 20 19 19 19 19 18 18 18 19 19 18 18 18 19 19 19 19 19 18 18 18
21 22 22 21 21 21 21 21 21 20 20 20 20 20 20 19 19 20 20 20 20 20 19 19 19 19 19 19 19 19 19 19 19 19 19 19 19 19 19 18 18 18
21 21 21 21 21 22 22 21 21 21 20 20 20 19 19 19 19 20 20 20 20 19 19 19 19 19 19 19 19 19 20 20 20 20 20 20 19 19 19 18 18 18
20 20 21 21 21 21 21 21 21 21 20 20 20 20 20 19 19 19 19 19 19 19 19 19 19 19 19 19 19 19 20 20 20 20 20 20 20 20 19 19 18 18
21 20 21 21 21 21 21 21 21 21 20 20 20 20 20 19 19 19 19 19 19 19 19 19 19 19 19 19 20 20 20 20 20 20 21 21 20 20 19 19 19 18
21 21 21 21 21 21 21 21 21 20 20 20 20 20 19 19 19 19 19 19 19 20 19 19 19 19 19 20 20 20 20 20 20 20 21 21 21 20 19 19 19 18
21 20 21 21 21 21 21 21 21 20 20 20 20 19 19 19 19 19 19 19 20 20 20 19 19 19 19 19 20 20 20 20 20 20 20 21 21 20 20 19 19 18
20 20 21 21 21 21 21 21 21 20 20 20 19 19 20 20 19 19 20 19 20 20 20 20 19 19 19 19 19 19 19 19 19 19 20 20 20 20 20 20 19 18
20 20 20 21 21 21 20 21 21 20 20 20 19 19 20 20 20 20 20 20 20 20 20 20 19 19 19 20 20 19 19 18 18 18 19 19 20 20 20 20 19 18
21 20 20 20 20 20 20 21 21 20 20 20 19 19 20 21 20 20 20 20 20 20 20 20 19 19 20 20 19 19 18 18 18 18 19 19 19 20 20 20 19 18
21 20 20 20 20 20 20 20 20 20 20 20 19 20 20 20 20 20 20 20 20 20 20 20 20 19 19 19 19 18 18 17 17 18 18 18 19 19 20 20 19 18
20 20 20 20 20 19 20 20 20 20 20 19 19 19 20 20 19 20 20 20 20 20 20 20 19 19 19 19 18 18 18 17 17 18 18 18 19 20 20 20 19 19
20 20 20 19 19 19 19 19 20 20 20 19 19 19 19 19 19 19 19 19 19 19 19 19 19 19 19 18 18 18 18 18 17 17 18 18 19 20 20 19 19 18
20 20 19 19 19 19 19 19 19 20 19 19 19 19 19 19 19 19 19 18 18 18 18 19 19 19 19 18 18 18 18 17 17 17 18 18 18 19 19 19 19 18
19 19 19 19 19 19 19 19 19 19 19 19 19 19 19 19 19 19 19 18 18 18 18 19 19 18 18 18 18 18 18 17 17 17 18 18 18 19 19 19 18 18
19 19 19 19 19 19 19 19 19 19 19 19 19 19 19 19 19 19 19 19 18 18 18 19 19 18 18 18 18 18 17 17 17 17 18 18 18 19 19 18 18 18
19 19 19 19 18 18 18 19 19 19 19 19 19 19 19 19 19 19 19 19 19 18 18 19 19 18 18 18 18 18 17 17 17 18 18 18 18 19 19 19 18 18
19 19 19 18 18 18 18 19 19 19 19 19 19 19 20 20 19 19 19 19 19 19 19 19 19 19 18 18 18 18 17 17 17 18 18 18 18 19 19 19 19 18
19 19 19 18 18 19 19 19 19 19 19 19 19 19 19 20 20 19 19 20 19 19 19 19 19 19 18 18 18 18 17 17 17 18 18 18 18 19 19 19 19 19
18 18 19 18 18 19 19 19 19 19 19 19 19 19 19 19 19 19 20 20 20 19 19 19 19 19 18 18 18 18 18 17 17 18 18 19 19 19 19 19 19 19
19 19 19 19 18 19 19 19 19 19 18 18 18 19 19 19 19 19 20 20 19 19 19 19 19 19 18 18 18 18 18 18 17 17 18 18 19 19 19 19 19 19
Height
827 829 830 831 833 834 835 836 837 839 840 840 840 841 842 843 844 844 844 844 845 846 846 847 847 847 848 848 848 848 847 846 847 846 846 845 845 845 845 844 844 843
827 829 831 832 833 834 836 837 838 839 839 840 841 842 843 844 844 845 845 845 845 846 847 847 848 848 848 849 848 848 848 847 847 847 847 846 846 845 845 845 845 844
827 829 830 832 833 834 836 837 839 839 840 840 841 843 843 844 845 845 845 846 846 847 847 848 848 849 849 849 849 849 849 848 848 848 848 847 846 846 846 846 846 845
827 828 829 831 832 833 836 838 839 839 840 841 842 842 843 844 845 845 845 846 846 847 847 848 849 849 849 849 849 849 849 849 849 849 848 848 847 847 847 847 847 846
825 828 828 829 831 833 836 838 839 839 840 841 842 843 844 845 845 845 845 845 845 846 847 848 849 850 850 849 849 850 850 850 850 850 849 849 848 848 848 848 848 847
825 826 827 829 831 833 837 838 839 840 841 842 843 843 844 844 845 845 845 845 845 847 848 849 849 850 850 850 850 851 850 850 850 850 849 849 849 849 849 849 848 848
826 827 828 830 832 833 836 837 839 840 841 842 843 844 844 844 845 846 846 846 847 848 849 850 850 850 851 851 851 850 850 850 849 849 849 849 849 849 849 849 849 848
828 830 830 831 832 834 835 837 838 840 841 843 844 844 845 845 846 846 847 847 848 849 850 851 852 851 852 852 851 851 850 850 849 849 848 848 848 848 848 848 849 849
828 832 832 832 833 834 835 836 838 839 841 843 844 845 845 845 846 846 847 847 849 850 851 852 852 852 852 852 851 851 851 850 850 849 848 847 847 848 848 848 848 849
827 831 832 832 833 835 835 836 838 839 841 843 844 845 845 845 846 847 848 848 849 851 851 852 852 852 852 851 851 851 851 850 850 849 847 847 847 847 847 847 848 848
827 830 831 832 834 835 836 837 838 839 841 842 844 844 845 846 847 848 849 849 849 850 851 852 852 852 852 851 851 852 851 850 850 849 848 847 847 847 847 848 848 848
826 828 830 832 834 835 836 837 838 839 841 842 843 845 846 847 848 848 848 849 849 850 851 851 852 852 852 852 852 852 851 851 850 849 848 847 847 847 847 848 849 848
825 828 830 832 834 835 836 838 838 840 841 842 844 845 846 847 847 848 848 849 850 850 850 851 852 852 852 852 852 852 851 851 850 849 849 848 848 848 847 847 848 847
825 827 830 832 833 835 837 838 838 840 840 842 844 845 845 846 846 847 847 848 850 850 850 851 851 852 852 851 852 852 851 851 851 850 850 849 849 848 847 847 847 847
824 827 830 832 833 835 837 838 838 839 840 842 844 844 844 845 846 847 847 848 849 850 850 851 851 851 851 851 851 851 851 851 851 850 849 849 849 849 848 847 847 847
824 827 830 832 834 835 837 837 838 839 840 841 844 844 845 845 846 847 848 848 849 849 850 850 850 850 850 850 851 850 850 850 850 850 849 848 849 848 848 847 847 846
825 828 830 832 834 836 837 837 838 839 840 841 843 844 845 846 847 847 848 848 849 849 850 850 849 850 850 850 850 850 850 850 850 849 848 848 848 848 848 847 847 846
826 828 830 833 834 836 837 837 838 839 840 842 843 845 846 846 847 848 848 848 848 849 850 850 849 849 850 850 850 849 849 849 849 849 848 847 847 847 847 847 847 847
827 829 831 833 834 836 837 837 838 839 840 842 843 844 846 846 847 848 848 848 849 849 850 850 849 849 849 849 849 849 849 848 848 848 847 847 847 846 846 846 846 846
828 829 832 834 834 836 837 837 838 839 841 842 843 844 845 846 847 847 848 848 849 849 849 849 848 848 848 848 848 848 848 847 847 847 847 846 846 846 845 845 846 846
828 830 832 833 834 836 836 837 838 839 841 842 843 844 845 845 846 847 847 848 848 848 848 848 848 847 847 847 847 847 847 846 846 846 846 846 845 844 844 844 845 846
828 830 832 833 835 836 836 837 838 839 841 842 842 843 844 844 845 846 846 847 847 847 848 847 847 846 846 846 846 846 846 845 845 845 845 845 844 843 843 843 844 844
828 830 831 833 834 835 836 837 838 839 840 841 842 842 842 843 844 844 845 845 846 846 846 846 846 845 845 845 845 845 844 844 844 843 844 844 843 842 842 842 842 843
829 830 831 833 834 834 836 836 837 839 840 841 842 842 842 843 843 843 844 844 844 845 845 845 845 844 844 844 844 844 843 842 843 842 842 843 842 841 841 841 841 841
828 829 831 832 833 834 835 836 837 839 840 841 842 842 842 842 842 842 843 843 843 843 843 843 844 843 843 843 842 842 842 841 842 841 841 841 841 840 840 840 839 839
827 829 830 831 833 834 835 836 837 838 840 841 841 841 841 842 842 842 842 841 841 842 842 842 842 842 842 841 841 841 841 840 840 840 840 840 840 840 839 839 838 838
Wind_Speed
14 13 11 11 10 9 9 9 8 8 8 7 8 11 10 9 9 9 9 10 11 10 10 9 9 9 9 9 9 9 10 10 9 10 11 11 11 12 13 13 13 12
15 14 11 11 11 9 8 8 8 8 7 8 10 10 9 9 8 7 8 10 11 10 9 9 8 8 7 8 9 11 11 11 11 10 11 12 11 12 13 13 13 13
15 14 12 12 11 9 8 8 8 8 8 10 10 9 9 10 8 8 9 10 10 9 9 9 8 7 5 5 6 10 12 12 12 11 12 12 12 12 14 13 14 13
15 14 13 12 12 10 10 9 8 8 9 10 10 10 11 10 10 10 9 9 8 8 9 9 8 7 6 5 5 8 11 11 11 11 12 13 13 12 13 14 14 14
16 14 11 12 14 14 11 9 9 10 9 10 10 10 11 10 9 8 8 8 8 9 10 9 9 9 8 9 10 9 10 10 10 9 10 12 13 12 13 14 14 14
16 13 12 15 16 13 10 10 10 10 10 10 10 10 9 8 7 5 5 7 7 8 9 8 7 8 6 7 7 5 5 8 10 9 8 10 11 11 11 13 13 13
13 13 15 15 14 11 10 11 11 10 10 10 10 9 8 7 7 6 5 7 9 9 8 7 6 7 7 6 5 4 1 5 7 7 7 8 8 9 10 11 12 12
14 13 14 13 12 11 11 12 11 10 11 11 10 9 8 8 9 8 6 8 11 9 7 7 6 7 7 5 6 7 4 4 6 6 6 5 5 8 9 10 11 12
14 11 11 12 11 10 11 12 11 11 11 11 11 10 9 9 9 10 9 10 11 8 6 6 3 3 4 4 6 7 6 6 7 8 8 5 3 6 9 10 10 9
13 10 11 12 11 10 12 12 11 12 11 11 11 10 10 10 9 10 9 8 9 8 7 5 3 2 1 2 5 6 6 6 7 8 10 8 6 8 10 11 9 7
14 13 12 13 12 11 12 12 12 13 12 11 11 11 12 9 8 8 7 6 7 8 7 5 3 2 4 4 4 5 5 6 7 8 10 10 8 7 11 12 9 7
16 14 14 14 13 12 12 13 13 13 13 11 11 12 12 9 6 5 5 5 3 5 6 4 5 4 3 4 4 4 5 7 8 8 10 11 9 8 9 10 9 7
16 15 15 14 13 13 13 13 13 13 12 11 11 11 11 10 6 3 5 5 2 2 4 3 3 2 1 2 2 3 4 7 8 8 10 10 8 10 10 6 5 5
17 17 16 14 14 15 13 12 13 13 13 12 10 8 8 8 7 4 4 7 6 2 2 2 2 3 3 2 2 3 3 4 6 6 8 8 6 8 10 5 4 4
17 17 15 14 14 15 13 12 13 14 13 13 8 7 6 5 6 4 2 5 6 5 4 4 4 6 5 1 1 2 2 2 4 6 6 7 6 7 9 5 6 4
17 17 16 14 14 15 11 10 13 12 12 13 8 7 5 3 2 3 4 3 4 5 5 5 6 6 5 3 1 2 1 2 3 6 6 8 9 7 8 7 6 4
17 16 16 14 15 15 11 10 13 12 10 13 9 6 5 4 2 3 4 3 2 3 2 0 3 5 4 2 3 2 2 2 3 6 7 10 10 5 5 7 6 6
15 16 16 15 15 14 11 10 11 11 9 10 10 8 5 5 5 4 4 4 4 5 4 1 4 2 1 3 5 5 4 3 3 5 8 10 9 6 5 4 4 6
16 16 15 15 14 13 12 10 10 10 9 7 8 9 7 6 5 5 4 4 4 5 5 2 3 2 2 4 6 7 6 4 3 5 7 8 9 10 5 1 2 5
16 17 15 14 14 13 13 12 10 10 10 8 8 8 7 7 6 5 6 5 4 5 6 5 5 5 2 5 7 7 5 5 4 5 6 8 11 10 4 1 2 5
16 17 15 14 14 13 13 12 10 10 11 10 10 9 8 8 7 6 7 6 5 6 7 7 6 5 3 6 7 6 6 5 4 5 6 7 9 9 4 3 3 5
16 16 15 14 14 13 13 13 11 10 10 10 9 9 10 11 9 7 7 7 6 7 7 7 6 6 7 7 7 7 6 5 4 6 6 6 8 10 6 5 6 7
16 15 15 15 14 14 14 12 11 11 10 8 8 9 9 10 9 9 9 8 7 7 7 7 9 9 8 7 7 7 7 5 5 6 7 7 9 11 7 6 7 9
15 14 15 14 14 15 14 11 11 12 10 9 10 10 8 7 7 8 8 8 7 7 8 8 8 7 7 7 8 8 7 6 6 7 8 8 9 11 9 9 10 10
16 16 17 16 14 12 11 11 12 12 11 10 10 9 8 8 8 8 8 10 10 9 7 7 7 8 9 9 9 8 8 8 7 8 9 9 9 11 10 9 11 13
15 14 15 16 14 12 11 11 11 12 12 11 10 10 10 9 10 10 9 8 6 5 5 6 8 9 10 10 10 9 10 9 9 9 11 10 10 11 11 11 14 15
Wind_Direction
151 152 158 156 156 154 137 134 146 148 149 147 114 97 95 91 85 84 87 84 77 66 58 56 52 57 60 53 52 49 41 47 49 38 29 29 35 36 28 28 29 15
154 160 167 152 145 144 132 134 144 142 139 124 110 109 114 107 95 87 89 88 79 68 61 59 62 66 64 65 67 58 50 51 47 39 34 29 30 37 33 25 24 20
158 166 168 149 149 157 142 136 140 138 131 122 122 129 124 112 101 90 82 82 79 72 67 64 63 67 61 62 78 71 61 54 45 38 38 32 27 37 39 27 22 21
162 171 175 163 161 154 136 141 148 136 125 125 129 125 119 114 109 104 95 95 103 95 84 77 68 61 46 39 68 80 66 55 47 39 39 35 27 33 38 28 23 22
168 177 175 157 144 133 135 156 151 132 128 130 124 115 119 124 124 131 128 122 133 122 101 91 80 69 51 47 61 72 65 56 49 39 39 40 30 30 35 27 22 20
175 169 148 135 131 131 147 157 140 134 139 135 128 128 133 131 123 130 124 107 106 99 88 78 76 79 72 60 56 57 76 74 58 41 40 44 34 30 32 25 20 18
162 143 135 132 131 142 153 144 137 144 144 133 130 130 123 116 108 90 72 84 86 80 80 71 53 60 70 62 33 10 108 100 61 45 50 50 44 40 35 25 19 17
144 129 135 137 138 152 150 139 142 146 139 132 127 125 123 127 127 109 84 90 92 83 85 87 68 64 73 69 34 12 13 46 27 21 37 51 60 50 41 34 21 15
147 134 141 142 146 155 146 141 146 142 135 134 132 133 132 127 120 107 89 86 91 87 82 84 85 96 113 120 78 38 15 31 26 7 359 5 61 59 48 41 26 18
156 155 154 147 148 154 146 142 145 140 136 140 143 136 118 106 106 110 109 112 115 112 101 91 81 74 81 142 95 58 21 21 20 0 351 4 51 68 57 38 20 34
160 162 155 147 150 156 150 144 143 142 142 147 146 125 108 106 115 124 144 160 141 121 114 118 129 85 22 22 55 43 14 9 10 359 353 6 28 49 58 39 20 55
158 158 152 150 156 156 150 147 145 144 147 147 135 124 124 127 124 142 181 193 160 125 124 135 149 134 51 41 47 24 3 359 4 360 352 359 3 7 36 37 24 55
154 155 154 156 159 155 151 153 149 147 148 140 134 148 157 144 130 188 193 169 140 120 130 134 144 157 158 122 72 16 3 349 353 2 357 359 1 354 2 22 41 67
154 154 157 160 158 154 157 159 153 151 147 136 143 178 188 158 145 175 172 145 147 171 165 160 207 227 220 144 65 18 18 357 345 348 348 353 0 350 349 14 89 83
154 153 158 162 154 154 164 162 153 153 147 141 161 199 199 166 148 161 193 152 155 183 201 204 213 216 224 216 54 359 8 28 341 319 321 333 337 333 336 11 91 76
153 154 158 161 155 158 170 162 156 163 152 146 176 209 188 167 147 183 218 198 179 205 222 230 220 198 207 245 349 348 2 53 333 310 304 309 312 315 326 353 51 20
151 154 157 158 157 163 174 167 164 172 155 144 170 210 189 177 207 220 233 245 247 273 323 85 161 157 179 282 2 8 359 19 316 303 304 304 307 324 343 349 11 343
151 155 156 156 158 165 175 173 166 172 165 151 168 196 196 187 198 218 253 291 310 320 344 84 147 148 333 344 357 347 330 330 299 294 303 304 310 328 341 346 354 328
153 151 153 157 162 166 171 175 169 169 175 174 176 191 199 198 206 221 235 264 293 302 307 279 224 257 322 344 339 331 320 309 283 286 295 301 310 312 308 319 348 317
150 152 158 163 169 171 171 178 179 167 172 187 195 201 203 198 212 229 223 230 252 270 287 278 241 238 278 330 332 329 318 299 279 277 284 291 297 295 270 216 287 287
154 159 164 166 171 172 170 178 183 174 180 194 198 201 205 204 216 230 226 226 230 244 269 268 236 230 283 316 324 325 321 313 284 272 280 287 290 285 242 200 260 265
160 162 163 166 170 171 176 183 179 179 196 204 201 203 205 201 208 227 230 228 228 234 250 257 251 264 285 297 308 317 323 324 288 273 275 271 278 278 251 222 254 254
164 164 163 169 174 175 186 192 177 179 202 209 210 227 223 201 204 224 227 224 229 233 237 244 250 257 264 276 297 312 319 316 288 275 271 262 273 279 257 237 256 247
164 166 162 172 184 181 185 188 175 181 205 210 214 236 244 228 229 234 229 230 237 234 235 244 250 257 265 275 290 302 309 305 284 273 271 263 271 277 258 239 249 248
168 173 168 175 189 188 188 192 182 184 205 217 222 235 242 248 256 252 245 248 240 227 232 247 253 264 271 273 280 289 298 301 285 272 271 265 269 282 275 252 250 251
169 174 171 174 180 184 198 206 193 188 205 217 225 233 235 239 247 249 256 266 252 226 240 256 254 259 263 266 272 279 287 294 283 267 267 267 267 277 280 269 264 260